When you browse on this site, cookies collect data to enhance your experience and personalize the content and advertising you see.
Visit our Privacy Policy to learn more. By continuing to use the site, you agree to this use of cookies and data.
  • In Sweden
  • List of Countries
  • For 7 days
  • Water Temperature
  • Satellite Maps
  • Weather Map
  • Weather Widgets
  • user-avatar
    Login

    Hourly Weather Sorokino

    Today, 20 July, Saturday

    Time Temperature Precipitation Wind Pressure Humidity
    00:00 +16°C° 0 mm 3 mps 749 mmHg 96%
    01:00 +16°C° 0 mm 3 mps 749 mmHg 96%
    02:00 +16°C° 0 mm 3 mps 749 mmHg 97%
    03:00 +16°C° 0 mm 3 mps 750 mmHg 97%
    04:00 +16°C° 0 mm 3 mps 750 mmHg 97%
    05:00 +16°C° 0 mm 3 mps 750 mmHg 96%
    06:00 +16°C° 0 mm 3 mps 750 mmHg 93%
    07:00 +17°C° 0 mm 4 mps 750 mmHg 90%
    08:00 +18°C° 0 mm 4 mps 750 mmHg 87%
    09:00 +18°C° 0.2 mm 4 mps 751 mmHg 83%
    10:00 +19°C° 0.2 mm 4 mps 751 mmHg 78%
    11:00 +19°C° 0.2 mm 4 mps 752 mmHg 74%
    12:00 +21°C° 0.2 mm 4 mps 752 mmHg 70%
    13:00 +22°C° 0.2 mm 4 mps 752 mmHg 67%
    14:00 +23°C° 0.2 mm 5 mps 752 mmHg 64%
    15:00 +22°C° 0.1 mm 4 mps 752 mmHg 65%
    16:00 +22°C° 0.1 mm 4 mps 752 mmHg 67%
    17:00 +22°C° 0.1 mm 3 mps 753 mmHg 68%
    18:00 +20°C° 0.1 mm 3 mps 753 mmHg 76%
    19:00 +19°C° 0.1 mm 2 mps 753 mmHg 83%
    20:00 +18°C° 0.1 mm 1 mps 753 mmHg 90%
    21:00 +16°C° 0 mm 1 mps 753 mmHg 92%
    22:00 +16°C° 0 mm 1 mps 753 mmHg 94%
    23:00 +15°C° 0 mm 1 mps 754 mmHg 96%

    Tomorrow, 21 July, Sunday

    Time Temperature Precipitation Wind Pressure Humidity
    00:00 +15°C° 0 mm 1 mps 754 mmHg 96%
    01:00 +14°C° 0 mm 1 mps 754 mmHg 96%
    02:00 +14°C° 0 mm 1 mps 754 mmHg 96%
    03:00 +14°C° 0 mm 1 mps 754 mmHg 96%
    04:00 +14°C° 0 mm 1 mps 755 mmHg 96%
    05:00 +14°C° 0 mm 1 mps 755 mmHg 95%
    06:00 +15°C° 0 mm 1 mps 755 mmHg 88%
    07:00 +18°C° 0 mm 1 mps 755 mmHg 82%
    08:00 +20°C° 0 mm 1 mps 755 mmHg 75%
    09:00 +22°C° 0 mm 1 mps 755 mmHg 70%
    10:00 +23°C° 0 mm 1 mps 755 mmHg 64%
    11:00 +25°C° 0 mm 1 mps 755 mmHg 58%
    12:00 +25°C° 0.2 mm 1 mps 755 mmHg 58%
    13:00 +25°C° 0.2 mm 1 mps 754 mmHg 59%
    14:00 +25°C° 0.2 mm 1 mps 754 mmHg 59%
    15:00 +25°C° 0.2 mm 1 mps 754 mmHg 62%
    16:00 +25°C° 0.2 mm 1 mps 754 mmHg 65%
    17:00 +24°C° 0.2 mm 1 mps 754 mmHg 68%
    18:00 +23°C° 0.1 mm 1 mps 754 mmHg 73%
    19:00 +21°C° 0.1 mm 1 mps 754 mmHg 78%
    20:00 +17°C° 0.1 mm 0 mps 754 mmHg 83%
    21:00 +17°C° 0 mm 0 mps 754 mmHg 85%
    22:00 +16°C° 0 mm 0 mps 754 mmHg 87%
    23:00 +15°C° 0 mm 0 mps 754 mmHg 88%

    Day after tomorrow, 22 July, Monday

    Time Temperature Precipitation Wind Pressure Humidity
    00:00 +14°C° 0 mm 0 mps 754 mmHg 89%
    01:00 +14°C° 0 mm 0 mps 754 mmHg 90%
    02:00 +13°C° 0 mm 0 mps 754 mmHg 90%
    03:00 +14°C° 0 mm 0 mps 754 mmHg 90%
    04:00 +14°C° 0 mm 0 mps 754 mmHg 90%
    05:00 +15°C° 0 mm 1 mps 754 mmHg 90%
    06:00 +18°C° 0 mm 1 mps 754 mmHg 85%
    07:00 +20°C° 0 mm 1 mps 754 mmHg 79%
    08:00 +21°C° 0 mm 1 mps 753 mmHg 74%
    09:00 +23°C° 0.1 mm 1 mps 753 mmHg 67%
    10:00 +24°C° 0.1 mm 1 mps 753 mmHg 61%
    11:00 +25°C° 0.1 mm 1 mps 753 mmHg 54%
    12:00 +26°C° 0 mm 2 mps 753 mmHg 54%
    13:00 +26°C° 0 mm 2 mps 753 mmHg 54%
    14:00 +26°C° 0 mm 2 mps 753 mmHg 53%
    15:00 +26°C° 0 mm 2 mps 753 mmHg 55%
    16:00 +25°C° 0 mm 2 mps 753 mmHg 58%
    17:00 +25°C° 0 mm 2 mps 753 mmHg 60%
    18:00 +23°C° 0 mm 2 mps 753 mmHg 66%
    19:00 +21°C° 0 mm 2 mps 753 mmHg 73%
    20:00 +19°C° 0 mm 2 mps 753 mmHg 79%
    21:00 +19°C° 0 mm 1 mps 753 mmHg 78%
    22:00 +18°C° 0 mm 1 mps 753 mmHg 77%
    23:00 +16°C° 0 mm 1 mps 753 mmHg 76%

    23 July, Tuesday

    Time Temperature Precipitation Wind Pressure Humidity
    00:00 +15°C° 0 mm 1 mps 753 mmHg 77%
    01:00 +15°C° 0 mm 1 mps 753 mmHg 79%
    02:00 +14°C° 0 mm 1 mps 753 mmHg 80%
    03:00 +14°C° 0 mm 1 mps 753 mmHg 81%
    04:00 +14°C° 0 mm 1 mps 753 mmHg 83%
    05:00 +14°C° 0 mm 1 mps 754 mmHg 85%
    06:00 +16°C° 0 mm 1 mps 754 mmHg 79%
    07:00 +18°C° 0 mm 2 mps 754 mmHg 73%
    08:00 +20°C° 0 mm 2 mps 754 mmHg 67%
    09:00 +21°C° 0 mm 2 mps 754 mmHg 61%
    10:00 +23°C° 0 mm 2 mps 754 mmHg 56%
    11:00 +24°C° 0 mm 3 mps 754 mmHg 50%
    12:00 +25°C° 0 mm 3 mps 754 mmHg 49%
    13:00 +25°C° 0 mm 3 mps 754 mmHg 49%
    14:00 +25°C° 0 mm 3 mps 754 mmHg 48%
    15:00 +25°C° 0 mm 2 mps 754 mmHg 50%
    16:00 +25°C° 0 mm 2 mps 754 mmHg 52%
    17:00 +25°C° 0 mm 2 mps 754 mmHg 54%
    18:00 +23°C° 0 mm 2 mps 754 mmHg 61%
    19:00 +21°C° 0 mm 1 mps 754 mmHg 68%
    20:00 +19°C° 0 mm 1 mps 754 mmHg 75%
    21:00 +18°C° 0 mm 1 mps 754 mmHg 77%
    22:00 +16°C° 0 mm 1 mps 754 mmHg 78%
    23:00 +15°C° 0 mm 1 mps 754 mmHg 80%

    24 July, Wednesday

    Time Temperature Precipitation Wind Pressure Humidity
    00:00 +15°C° 0 mm 1 mps 755 mmHg 80%
    01:00 +14°C° 0 mm 1 mps 755 mmHg 80%
    02:00 +14°C° 0 mm 1 mps 755 mmHg 81%
    03:00 +14°C° 0 mm 1 mps 755 mmHg 81%
    04:00 +13°C° 0 mm 0 mps 755 mmHg 82%
    05:00 +13°C° 0 mm 0 mps 755 mmHg 82%
    06:00 +15°C° 0 mm 0 mps 755 mmHg 76%
    07:00 +18°C° 0 mm 0 mps 755 mmHg 69%
    08:00 +20°C° 0 mm 0 mps 755 mmHg 63%
    09:00 +21°C° 0 mm 0 mps 755 mmHg 58%
    10:00 +23°C° 0 mm 0 mps 755 mmHg 52%
    11:00 +24°C° 0 mm 0 mps 755 mmHg 47%
    12:00 +25°C° 0 mm 0 mps 755 mmHg 46%
    13:00 +25°C° 0 mm 0 mps 755 mmHg 45%
    14:00 +27°C° 0 mm 1 mps 755 mmHg 44%
    15:00 +27°C° 0 mm 1 mps 755 mmHg 47%
    16:00 +26°C° 0 mm 1 mps 755 mmHg 50%
    17:00 +26°C° 0 mm 1 mps 755 mmHg 53%
    18:00 +24°C° 0 mm 1 mps 755 mmHg 60%
    19:00 +23°C° 0 mm 1 mps 755 mmHg 68%
    20:00 +21°C° 0 mm 1 mps 755 mmHg 75%
    21:00 +20°C° 0 mm 1 mps 755 mmHg 77%
    22:00 +20°C° 0 mm 1 mps 755 mmHg 78%
    23:00 +19°C° 0 mm 1 mps 755 mmHg 79%

    25 July, Thursday

    Time Temperature Precipitation Wind Pressure Humidity
    00:00 +18°C° 0 mm 1 mps 755 mmHg 82%
    01:00 +18°C° 0 mm 1 mps 755 mmHg 86%
    02:00 +16°C° 0 mm 1 mps 756 mmHg 89%
    03:00 +16°C° 0 mm 1 mps 756 mmHg 90%
    04:00 +18°C° 0 mm 1 mps 756 mmHg 92%
    05:00 +18°C° 0 mm 1 mps 756 mmHg 93%
    06:00 +20°C° 0 mm 1 mps 756 mmHg 88%
    07:00 +22°C° 0 mm 1 mps 756 mmHg 83%
    08:00 +23°C° 0 mm 2 mps 756 mmHg 78%
    09:00 +24°C° 0 mm 2 mps 756 mmHg 74%
    10:00 +26°C° 0 mm 2 mps 756 mmHg 70%
    11:00 +27°C° 0 mm 2 mps 756 mmHg 66%
    12:00 +27°C° 0.1 mm 2 mps 756 mmHg 61%
    13:00 +28°C° 0.1 mm 3 mps 756 mmHg 56%
    14:00 +28°C° 0.1 mm 3 mps 756 mmHg 52%
    15:00 +28°C° 0 mm 3 mps 756 mmHg 55%
    16:00 +28°C° 0 mm 3 mps 756 mmHg 58%
    17:00 +27°C° 0 mm 2 mps 756 mmHg 62%
    18:00 +25°C° 0 mm 2 mps 757 mmHg 69%
    19:00 +23°C° 0 mm 2 mps 757 mmHg 75%
    20:00 +20°C° 0 mm 2 mps 757 mmHg 82%
    21:00 +19°C° 0 mm 2 mps 757 mmHg 81%
    22:00 +17°C° 0 mm 2 mps 758 mmHg 79%
    23:00 +16°C° 0 mm 2 mps 758 mmHg 78%
    Show more